Time,TemperatureF,DewpointF,PressureIn,WindDirection,WindDirectionDegrees,WindSpeedMPH,WindSpeedGustMPH,Humidity,HourlyPrecipIn,Conditions,Clouds,dailyrainin,SoftwareType,DateUTC
2013-02-03 00:00:00,18.9,32.0,28.73,WSW,258,0.0,3.1,28,0.00,,,-99.99,wx200d/1.3,2013-02-03 05:00:00,
2013-02-03 00:02:00,18.9,32.0,28.73,WSW,237,0.0,2.7,28,0.00,,,-99.99,wx200d/1.3,2013-02-03 05:02:00,
2013-02-03 00:08:00,18.9,32.0,28.73,SW,232,0.0,2.2,28,0.00,,,-99.99,wx200d/1.3,2013-02-03 05:08:00,
2013-02-03 00:12:00,18.9,32.0,28.73,SW,217,0.0,3.6,28,0.00,,,-99.99,wx200d/1.3,2013-02-03 05:12:00,
2013-02-03 00:18:00,18.9,32.0,28.73,SW,214,0.0,2.7,28,0.00,,,-99.99,wx200d/1.3,2013-02-03 05:18:00,
2013-02-03 00:24:00,18.7,32.0,28.73,West,261,2.2,2.2,30,0.00,,,-99.99,wx200d/1.3,2013-02-03 05:24:00,
2013-02-03 00:30:00,18.7,32.0,28.73,SW,217,2.7,2.7,30,0.00,,,-99.99,wx200d/1.3,2013-02-03 05:30:00,
2013-02-03 00:36:00,18.7,32.0,28.73,SSW,197,0.0,3.6,33,0.00,,,-99.99,wx200d/1.3,2013-02-03 05:36:00,
2013-02-03 00:42:00,18.7,32.0,28.73,West,263,0.0,2.7,33,0.00,,,-99.99,wx200d/1.3,2013-02-03 05:42:00,
2013-02-03 00:48:00,18.7,32.0,28.73,WSW,240,2.2,0.0,33,0.00,,,-99.99,wx200d/1.3,2013-02-03 05:48:00,
2013-02-03 00:54:00,18.7,32.0,28.73,SW,227,0.0,0.0,33,0.00,,,-99.99,wx200d/1.3,2013-02-03 05:54:00,
2013-02-03 01:00:00,18.7,32.0,28.73,WSW,245,0.0,0.0,33,0.00,,,-99.99,wx200d/1.3,2013-02-03 06:00:00,
2013-02-03 01:06:00,18.7,32.0,28.70,WSW,249,0.0,0.0,33,0.00,,,-99.99,wx200d/1.3,2013-02-03 06:06:00,
2013-02-03 01:12:00,18.7,32.0,28.70,WSW,251,0.0,0.0,33,0.00,,,-99.99,wx200d/1.3,2013-02-03 06:12:00,
2013-02-03 01:18:00,18.9,32.0,28.70,WSW,250,0.0,0.0,33,0.00,,,-99.99,wx200d/1.3,2013-02-03 06:18:00,
2013-02-03 01:24:00,18.7,32.0,28.70,WSW,246,0.0,0.0,33,0.00,,,-99.99,wx200d/1.3,2013-02-03 06:24:00,
2013-02-03 01:30:00,18.7,32.0,28.70,WSW,246,0.0,0.0,33,0.00,,,-99.99,wx200d/1.3,2013-02-03 06:30:00,
2013-02-03 01:36:00,18.7,32.0,28.70,WSW,246,0.0,0.0,33,0.00,,,-99.99,wx200d/1.3,2013-02-03 06:36:00,
2013-02-03 01:42:00,18.7,32.0,28.70,WSW,246,0.0,0.0,33,0.00,,,-99.99,wx200d/1.3,2013-02-03 06:42:00,
2013-02-03 01:48:00,18.7,32.0,28.70,WSW,246,0.0,0.0,33,0.00,,,-99.99,wx200d/1.3,2013-02-03 06:48:00,
2013-02-03 01:54:00,18.7,32.0,28.70,WSW,246,0.0,0.0,33,0.00,,,-99.99,wx200d/1.3,2013-02-03 06:54:00,
2013-02-03 02:00:00,18.5,32.0,28.70,WSW,246,0.0,0.0,33,0.00,,,-99.99,wx200d/1.3,2013-02-03 07:00:00,
2013-02-03 02:06:00,18.7,32.0,28.70,WSW,246,0.0,0.0,33,0.00,,,-99.99,wx200d/1.3,2013-02-03 07:06:00,
2013-02-03 02:12:00,18.7,32.0,28.70,WSW,246,0.0,0.0,33,0.00,,,-99.99,wx200d/1.3,2013-02-03 07:12:00,
2013-02-03 02:18:00,18.7,32.0,28.70,WSW,246,0.0,0.0,33,0.00,,,-99.99,wx200d/1.3,2013-02-03 07:18:00,
2013-02-03 02:24:00,18.7,32.0,28.70,WSW,246,0.0,0.0,33,0.00,,,-99.99,wx200d/1.3,2013-02-03 07:24:00,
2013-02-03 02:30:00,18.5,32.0,28.70,WSW,246,0.0,0.0,33,0.00,,,-99.99,wx200d/1.3,2013-02-03 07:30:00,
2013-02-03 02:36:00,18.3,32.0,28.70,WSW,246,0.0,0.0,33,0.00,,,-99.99,wx200d/1.3,2013-02-03 07:36:00,
2013-02-03 02:42:00,18.3,32.0,28.70,WSW,246,0.0,0.0,33,0.00,,,-99.99,wx200d/1.3,2013-02-03 07:42:00,
2013-02-03 02:48:00,18.3,32.0,28.70,WSW,247,0.0,2.2,33,0.00,,,-99.99,wx200d/1.3,2013-02-03 07:48:00,
2013-02-03 02:54:00,18.3,32.0,28.70,WSW,258,0.0,0.0,33,0.00,,,-99.99,wx200d/1.3,2013-02-03 07:54:00,
2013-02-03 03:00:00,18.1,32.0,28.70,WSW,258,0.0,0.0,34,0.00,,,-99.99,wx200d/1.3,2013-02-03 08:00:00,
2013-02-03 03:06:00,18.1,32.0,28.67,WSW,258,0.0,0.0,34,0.00,,,-99.99,wx200d/1.3,2013-02-03 08:06:00,
2013-02-03 03:12:00,17.8,32.0,28.67,WSW,258,0.0,0.0,34,0.00,,,-99.99,wx200d/1.3,2013-02-03 08:12:00,
2013-02-03 03:18:00,17.8,32.0,28.67,West,259,0.0,0.0,34,0.00,,,-99.99,wx200d/1.3,2013-02-03 08:18:00,
2013-02-03 03:24:00,17.8,32.0,28.67,West,259,0.0,0.0,34,0.00,,,-99.99,wx200d/1.3,2013-02-03 08:24:00,
2013-02-03 03:30:00,17.8,32.0,28.67,West,259,0.0,0.0,34,0.00,,,-99.99,wx200d/1.3,2013-02-03 08:30:00,
2013-02-03 03:36:00,17.8,32.0,28.67,West,259,0.0,0.0,34,0.00,,,-99.99,wx200d/1.3,2013-02-03 08:36:00,
2013-02-03 03:42:00,17.8,32.0,28.67,West,259,0.0,0.0,34,0.00,,,-99.99,wx200d/1.3,2013-02-03 08:42:00,
2013-02-03 03:48:00,17.8,32.0,28.67,West,259,0.0,0.0,34,0.00,,,-99.99,wx200d/1.3,2013-02-03 08:48:00,
2013-02-03 03:54:00,17.8,32.0,28.67,West,259,0.0,0.0,34,0.00,,,-99.99,wx200d/1.3,2013-02-03 08:54:00,
2013-02-03 04:00:00,17.8,32.0,28.67,West,259,0.0,0.0,34,0.00,,,-99.99,wx200d/1.3,2013-02-03 09:00:00,
2013-02-03 04:06:00,17.8,32.0,28.67,West,259,0.0,0.0,34,0.00,,,-99.99,wx200d/1.3,2013-02-03 09:06:00,
2013-02-03 04:12:00,17.8,32.0,28.67,West,259,0.0,0.0,34,0.00,,,-99.99,wx200d/1.3,2013-02-03 09:12:00,
2013-02-03 04:18:00,17.8,32.0,28.67,West,259,0.0,0.0,33,0.00,,,-99.99,wx200d/1.3,2013-02-03 09:18:00,
2013-02-03 04:24:00,17.8,32.0,28.67,West,259,0.0,0.0,33,0.00,,,-99.99,wx200d/1.3,2013-02-03 09:24:00,
2013-02-03 04:30:00,17.8,32.0,28.67,West,259,0.0,0.0,33,0.00,,,-99.99,wx200d/1.3,2013-02-03 09:30:00,
2013-02-03 04:36:00,17.6,32.0,28.67,West,259,0.0,0.0,34,0.00,,,-99.99,wx200d/1.3,2013-02-03 09:36:00,
2013-02-03 04:42:00,17.6,32.0,28.67,West,259,0.0,0.0,34,0.00,,,-99.99,wx200d/1.3,2013-02-03 09:42:00,
2013-02-03 04:48:00,17.6,32.0,28.67,West,259,0.0,0.0,33,0.00,,,-99.99,wx200d/1.3,2013-02-03 09:48:00,
2013-02-03 04:54:00,17.4,32.0,28.67,West,259,0.0,0.0,33,0.00,,,-99.99,wx200d/1.3,2013-02-03 09:54:00,
2013-02-03 05:00:00,17.4,32.0,28.67,West,259,0.0,0.0,33,0.00,,,-99.99,wx200d/1.3,2013-02-03 10:00:00,
2013-02-03 05:06:00,17.2,32.0,28.64,West,259,0.0,0.0,33,0.00,,,-99.99,wx200d/1.3,2013-02-03 10:06:00,
2013-02-03 05:12:00,16.9,32.0,28.64,West,259,0.0,0.0,31,0.00,,,-99.99,wx200d/1.3,2013-02-03 10:12:00,
2013-02-03 05:18:00,16.3,32.0,28.64,West,259,0.0,0.0,31,0.00,,,-99.99,wx200d/1.3,2013-02-03 10:18:00,
2013-02-03 05:24:00,16.0,32.0,28.64,West,259,0.0,0.0,31,0.00,,,-99.99,wx200d/1.3,2013-02-03 10:24:00,
2013-02-03 05:30:00,15.6,32.0,28.64,West,259,0.0,0.0,29,0.00,,,-99.99,wx200d/1.3,2013-02-03 10:30:00,
2013-02-03 05:36:00,15.3,32.0,28.64,West,259,0.0,0.0,29,0.00,,,-99.99,wx200d/1.3,2013-02-03 10:36:00,
2013-02-03 05:42:00,15.3,32.0,28.64,West,259,0.0,0.0,29,0.00,,,-99.99,wx200d/1.3,2013-02-03 10:42:00,
2013-02-03 05:48:00,15.3,32.0,28.64,West,259,0.0,0.0,29,0.00,,,-99.99,wx200d/1.3,2013-02-03 10:48:00,
2013-02-03 05:54:00,15.4,32.0,28.64,West,259,0.0,0.0,29,0.00,,,-99.99,wx200d/1.3,2013-02-03 10:54:00,
2013-02-03 06:00:00,15.6,32.0,28.64,West,259,0.0,0.0,29,0.00,,,-99.99,wx200d/1.3,2013-02-03 11:00:00,
2013-02-03 06:06:00,15.4,32.0,28.64,West,259,0.0,0.0,29,0.00,,,-99.99,wx200d/1.3,2013-02-03 11:06:00,
2013-02-03 06:12:00,15.3,32.0,28.64,West,259,0.0,0.0,29,0.00,,,-99.99,wx200d/1.3,2013-02-03 11:12:00,
2013-02-03 06:18:00,15.1,32.0,28.64,WNW,293,0.0,0.0,29,0.00,,,-99.99,wx200d/1.3,2013-02-03 11:18:00,
2013-02-03 06:24:00,15.1,32.0,28.64,WNW,293,0.0,0.0,29,0.00,,,-99.99,wx200d/1.3,2013-02-03 11:24:00,
2013-02-03 06:30:00,15.1,32.0,28.64,WNW,293,0.0,0.0,29,0.00,,,-99.99,wx200d/1.3,2013-02-03 11:30:00,
2013-02-03 06:36:00,14.5,32.0,28.64,WNW,293,0.0,0.0,29,0.00,,,-99.99,wx200d/1.3,2013-02-03 11:36:00,
2013-02-03 06:42:00,14.4,32.0,28.64,WNW,293,0.0,0.0,29,0.00,,,-99.99,wx200d/1.3,2013-02-03 11:42:00,
2013-02-03 06:48:00,13.8,32.0,28.64,WNW,293,0.0,0.0,27,0.00,,,-99.99,wx200d/1.3,2013-02-03 11:48:00,
2013-02-03 06:54:00,13.5,32.0,28.64,WNW,293,0.0,0.0,27,0.00,,,-99.99,wx200d/1.3,2013-02-03 11:54:00,
2013-02-03 07:00:00,13.5,32.0,28.64,WNW,293,0.0,0.0,27,0.00,,,-99.99,wx200d/1.3,2013-02-03 12:00:00,
2013-02-03 07:06:00,13.6,32.0,28.64,WNW,293,0.0,0.0,27,0.00,,,-99.99,wx200d/1.3,2013-02-03 12:06:00,
2013-02-03 07:12:00,13.5,32.0,28.64,WNW,293,0.0,0.0,27,0.00,,,-99.99,wx200d/1.3,2013-02-03 12:12:00,
2013-02-03 07:18:00,13.5,32.0,28.64,WNW,293,0.0,0.0,27,0.00,,,-99.99,wx200d/1.3,2013-02-03 12:18:00,
2013-02-03 07:24:00,13.5,32.0,28.64,WNW,302,0.0,0.0,27,0.00,,,-99.99,wx200d/1.3,2013-02-03 12:24:00,
2013-02-03 07:30:00,13.5,32.0,28.64,WNW,302,0.0,0.0,27,0.00,,,-99.99,wx200d/1.3,2013-02-03 12:30:00,
2013-02-03 07:36:00,13.6,32.0,28.64,WNW,302,0.0,0.0,27,0.00,,,-99.99,wx200d/1.3,2013-02-03 12:36:00,
2013-02-03 07:42:00,13.8,32.0,28.64,WNW,302,0.0,0.0,27,0.00,,,-99.99,wx200d/1.3,2013-02-03 12:42:00,
2013-02-03 07:48:00,14.4,32.0,28.64,WNW,302,0.0,0.0,29,0.00,,,-99.99,wx200d/1.3,2013-02-03 12:48:00,
2013-02-03 07:54:00,14.5,32.0,28.64,WNW,302,0.0,0.0,29,0.00,,,-99.99,wx200d/1.3,2013-02-03 12:54:00,
2013-02-03 08:00:00,14.7,32.0,28.64,WNW,302,0.0,0.0,29,0.00,,,-99.99,wx200d/1.3,2013-02-03 13:00:00,
2013-02-03 08:06:00,14.9,32.0,28.64,NW,307,0.0,0.0,29,0.00,,,-99.99,wx200d/1.3,2013-02-03 13:06:00,
2013-02-03 08:12:00,15.3,32.0,28.64,NW,307,0.0,0.0,29,0.00,,,-99.99,wx200d/1.3,2013-02-03 13:12:00,
2013-02-03 08:18:00,15.8,32.0,28.67,NW,307,0.0,0.0,29,0.00,,,-99.99,wx200d/1.3,2013-02-03 13:18:00,
2013-02-03 08:24:00,16.3,32.0,28.67,NW,316,0.0,0.0,28,0.00,,,-99.99,wx200d/1.3,2013-02-03 13:24:00,
2013-02-03 08:30:00,16.9,32.0,28.67,NW,319,0.0,0.0,28,0.00,,,-99.99,wx200d/1.3,2013-02-03 13:30:00,
2013-02-03 08:36:00,17.4,32.0,28.67,NNW,329,0.0,0.0,28,0.00,,,-99.99,wx200d/1.3,2013-02-03 13:36:00,
2013-02-03 08:42:00,17.8,32.0,28.67,North,350,0.0,0.0,25,0.00,,,-99.99,wx200d/1.3,2013-02-03 13:42:00,
2013-02-03 08:48:00,18.5,32.0,28.67,NNE,25,0.0,0.0,25,0.00,,,-99.99,wx200d/1.3,2013-02-03 13:48:00,
2013-02-03 08:54:00,18.5,32.0,28.67,NNE,16,0.0,0.0,25,0.00,,,-99.99,wx200d/1.3,2013-02-03 13:54:00,
2013-02-03 09:00:00,18.5,32.0,28.67,North,357,0.0,0.0,23,0.00,,,-99.99,wx200d/1.3,2013-02-03 14:00:00,
2013-02-03 09:06:00,18.5,32.0,28.67,North,0,0.0,0.0,23,0.00,,,-99.99,wx200d/1.3,2013-02-03 14:06:00,
2013-02-03 09:12:00,19.0,32.0,28.67,North,357,0.0,0.0,23,0.00,,,-99.99,wx200d/1.3,2013-02-03 14:12:00,
2013-02-03 09:18:00,19.4,32.0,28.64,SW,220,2.2,0.0,23,0.00,,,-99.99,wx200d/1.3,2013-02-03 14:18:00,
2013-02-03 09:24:00,19.8,32.0,28.64,NNW,327,0.0,0.0,22,0.00,,,-99.99,wx200d/1.3,2013-02-03 14:24:00,
2013-02-03 09:30:00,20.3,32.0,28.64,NNW,345,0.0,0.0,22,0.00,,,-99.99,wx200d/1.3,2013-02-03 14:30:00,
2013-02-03 09:36:00,20.5,32.0,28.64,SW,223,0.0,0.0,22,0.00,,,-99.99,wx200d/1.3,2013-02-03 14:36:00,
2013-02-03 09:42:00,21.2,32.0,28.64,NNW,346,0.0,0.0,22,0.00,,,-99.99,wx200d/1.3,2013-02-03 14:42:00,
2013-02-03 09:48:00,22.5,32.0,28.64,West,272,0.0,0.0,22,0.00,,,-99.99,wx200d/1.3,2013-02-03 14:48:00,
2013-02-03 09:54:00,23.2,32.0,28.64,WNW,294,0.0,0.0,22,0.00,,,-99.99,wx200d/1.3,2013-02-03 14:54:00,
2013-02-03 10:00:00,24.1,32.0,28.64,SSE,147,0.0,2.7,22,0.00,,,-99.99,wx200d/1.3,2013-02-03 15:00:00,
2013-02-03 10:06:00,25.0,32.0,28.64,East,93,0.0,0.0,21,0.00,,,-99.99,wx200d/1.3,2013-02-03 15:06:00,
2013-02-03 10:12:00,25.5,32.0,28.64,NW,325,0.0,0.0,21,0.00,,,-99.99,wx200d/1.3,2013-02-03 15:12:00,
2013-02-03 10:18:00,25.9,32.0,28.64,North,0,2.7,0.0,21,0.00,,,-99.99,wx200d/1.3,2013-02-03 15:18:00,
2013-02-03 10:24:00,26.1,32.0,28.64,SE,136,0.0,0.0,21,0.00,,,-99.99,wx200d/1.3,2013-02-03 15:24:00,
2013-02-03 10:30:00,26.4,32.0,28.64,North,11,2.7,0.0,21,0.00,,,-99.99,wx200d/1.3,2013-02-03 15:30:00,
2013-02-03 10:36:00,25.9,32.0,28.64,NNW,340,0.0,0.0,21,0.00,,,-99.99,wx200d/1.3,2013-02-03 15:36:00,
2013-02-03 10:42:00,25.5,32.0,28.64,WNW,295,2.2,2.2,21,0.00,,,-99.99,wx200d/1.3,2013-02-03 15:42:00,
2013-02-03 10:48:00,25.9,32.0,28.61,North,353,0.0,0.0,21,0.00,,,-99.99,wx200d/1.3,2013-02-03 15:48:00,
2013-02-03 10:54:00,26.2,32.0,28.61,SSE,148,0.0,0.0,21,0.00,,,-99.99,wx200d/1.3,2013-02-03 15:54:00,
2013-02-03 11:00:00,27.0,32.0,28.61,WSW,247,2.2,4.0,21,0.00,,,-99.99,wx200d/1.3,2013-02-03 16:00:00,
2013-02-03 11:06:00,27.9,32.0,28.61,North,0,2.2,0.0,21,0.00,,,-99.99,wx200d/1.3,2013-02-03 16:06:00,
2013-02-03 11:12:00,28.9,32.0,28.61,SSW,198,3.1,3.6,20,0.00,,,-99.99,wx200d/1.3,2013-02-03 16:12:00,
2013-02-03 11:18:00,28.9,32.0,28.61,South,189,2.7,4.9,20,0.00,,,-99.99,wx200d/1.3,2013-02-03 16:18:00,
2013-02-03 11:24:00,27.9,32.0,28.61,South,175,0.0,2.7,21,0.00,,,-99.99,wx200d/1.3,2013-02-03 16:24:00,
2013-02-03 11:30:00,27.1,32.0,28.61,NW,313,0.0,0.0,21,0.00,,,-99.99,wx200d/1.3,2013-02-03 16:30:00,
2013-02-03 11:36:00,27.0,32.0,28.59,SSW,211,0.0,2.7,21,0.00,,,-99.99,wx200d/1.3,2013-02-03 16:36:00,
2013-02-03 11:42:00,26.2,32.0,28.59,SW,226,0.0,0.0,21,0.00,,,-99.99,wx200d/1.3,2013-02-03 16:42:00,
2013-02-03 11:48:00,26.1,32.0,28.59,NNW,343,0.0,0.0,21,0.00,,,-99.99,wx200d/1.3,2013-02-03 16:48:00,
2013-02-03 11:54:00,26.2,32.0,28.59,North,353,0.0,0.0,21,0.00,,,-99.99,wx200d/1.3,2013-02-03 16:54:00,
2013-02-03 12:00:00,26.2,32.0,28.59,North,353,0.0,0.0,21,0.00,,,-99.99,wx200d/1.3,2013-02-03 17:00:00,
2013-02-03 12:06:00,26.6,32.0,28.59,North,353,0.0,0.0,21,0.00,,,-99.99,wx200d/1.3,2013-02-03 17:06:00,
2013-02-03 12:12:00,26.6,32.0,28.59,North,353,0.0,0.0,21,0.00,,,-99.99,wx200d/1.3,2013-02-03 17:12:00,
2013-02-03 12:18:00,26.4,32.0,28.56,NNW,338,0.0,0.0,21,0.00,,,-99.99,wx200d/1.3,2013-02-03 17:18:00,
2013-02-03 12:24:00,26.4,32.0,28.56,NW,322,0.0,0.0,21,0.00,,,-99.99,wx200d/1.3,2013-02-03 17:24:00,
2013-02-03 12:30:00,26.2,32.0,28.56,North,353,0.0,0.0,21,0.00,,,-99.99,wx200d/1.3,2013-02-03 17:30:00,
2013-02-03 12:36:00,26.6,32.0,28.56,North,353,0.0,0.0,21,0.00,,,-99.99,wx200d/1.3,2013-02-03 17:36:00,
2013-02-03 12:42:00,26.6,32.0,28.56,NW,322,0.0,0.0,21,0.00,,,-99.99,wx200d/1.3,2013-02-03 17:42:00,
2013-02-03 12:48:00,26.4,32.0,28.53,WNW,288,0.0,0.0,21,0.00,,,-99.99,wx200d/1.3,2013-02-03 17:48:00,
2013-02-03 12:54:00,26.6,32.0,28.53,SW,230,0.0,0.0,21,0.00,,,-99.99,wx200d/1.3,2013-02-03 17:54:00,
2013-02-03 13:00:00,26.8,32.0,28.53,North,353,0.0,0.0,21,0.00,,,-99.99,wx200d/1.3,2013-02-03 18:00:00,
2013-02-03 13:06:00,26.6,32.0,28.53,North,353,0.0,0.0,21,0.00,,,-99.99,wx200d/1.3,2013-02-03 18:06:00,
2013-02-03 13:12:00,26.6,32.0,28.53,North,353,0.0,0.0,21,0.00,,,-99.99,wx200d/1.3,2013-02-03 18:12:00,
2013-02-03 13:18:00,26.6,32.0,28.53,NNE,13,0.0,3.6,21,0.00,,,-99.99,wx200d/1.3,2013-02-03 18:18:00,
2013-02-03 13:24:00,26.4,32.0,28.53,NNE,15,0.0,0.0,21,0.00,,,-99.99,wx200d/1.3,2013-02-03 18:24:00,
2013-02-03 13:30:00,26.4,32.0,28.53,North,0,0.0,0.0,21,0.00,,,-99.99,wx200d/1.3,2013-02-03 18:30:00,
2013-02-03 13:36:00,26.6,32.0,28.53,North,357,0.0,0.0,21,0.00,,,-99.99,wx200d/1.3,2013-02-03 18:36:00,
2013-02-03 13:42:00,26.6,32.0,28.53,North,357,0.0,0.0,21,0.00,,,-99.99,wx200d/1.3,2013-02-03 18:42:00,
2013-02-03 13:48:00,26.6,32.0,28.53,North,0,0.0,2.7,21,0.00,,,-99.99,wx200d/1.3,2013-02-03 18:48:00,
2013-02-03 13:54:00,27.0,32.0,28.53,NNW,340,3.6,3.6,21,0.00,,,-99.99,wx200d/1.3,2013-02-03 18:54:00,
2013-02-03 14:00:00,26.6,32.0,28.53,WNW,291,0.0,0.0,21,0.00,,,-99.99,wx200d/1.3,2013-02-03 19:00:00,
2013-02-03 14:06:00,26.2,32.0,28.50,WNW,291,0.0,0.0,21,0.00,,,-99.99,wx200d/1.3,2013-02-03 19:06:00,
2013-02-03 14:12:00,25.7,32.0,28.50,WNW,291,0.0,0.0,21,0.00,,,-99.99,wx200d/1.3,2013-02-03 19:12:00,
2013-02-03 14:18:00,25.5,32.0,28.53,SSW,194,0.0,0.0,21,0.00,,,-99.99,wx200d/1.3,2013-02-03 19:18:00,
2013-02-03 14:24:00,25.3,32.0,28.53,SSW,195,0.0,0.0,21,0.00,,,-99.99,wx200d/1.3,2013-02-03 19:24:00,
2013-02-03 14:30:00,25.3,32.0,28.53,SSW,196,0.0,0.0,21,0.00,,,-99.99,wx200d/1.3,2013-02-03 19:30:00,
2013-02-03 14:36:00,25.7,32.0,28.53,North,353,0.0,0.0,21,0.00,,,-99.99,wx200d/1.3,2013-02-03 19:36:00,
2013-02-03 14:42:00,25.9,32.0,28.53,North,353,0.0,0.0,21,0.00,,,-99.99,wx200d/1.3,2013-02-03 19:42:00,
2013-02-03 14:48:00,25.9,32.0,28.50,NW,314,0.0,0.0,21,0.00,,,-99.99,wx200d/1.3,2013-02-03 19:48:00,
2013-02-03 14:54:00,26.1,32.0,28.50,NW,323,0.0,0.0,21,0.00,,,-99.99,wx200d/1.3,2013-02-03 19:54:00,
2013-02-03 15:00:00,25.9,32.0,28.50,NW,308,0.0,0.0,21,0.00,,,-99.99,wx200d/1.3,2013-02-03 20:00:00,
2013-02-03 15:06:00,25.7,32.0,28.50,North,350,0.0,0.0,21,0.00,,,-99.99,wx200d/1.3,2013-02-03 20:06:00,
2013-02-03 15:12:00,25.5,32.0,28.50,North,350,0.0,0.0,21,0.00,,,-99.99,wx200d/1.3,2013-02-03 20:12:00,
2013-02-03 15:18:00,25.3,32.0,28.50,NNW,340,0.0,0.0,21,0.00,,,-99.99,wx200d/1.3,2013-02-03 20:18:00,
2013-02-03 15:24:00,25.2,32.0,28.50,NW,305,0.0,0.0,21,0.00,,,-99.99,wx200d/1.3,2013-02-03 20:24:00,
2013-02-03 15:30:00,25.3,32.0,28.50,NW,305,0.0,0.0,21,0.00,,,-99.99,wx200d/1.3,2013-02-03 20:30:00,
2013-02-03 15:36:00,25.3,32.0,28.50,NNW,348,0.0,0.0,21,0.00,,,-99.99,wx200d/1.3,2013-02-03 20:36:00,
2013-02-03 15:42:00,25.3,32.0,28.50,NNW,339,0.0,0.0,21,0.00,,,-99.99,wx200d/1.3,2013-02-03 20:42:00,
2013-02-03 15:48:00,25.3,32.0,28.50,North,353,0.0,2.2,21,0.00,,,-99.99,wx200d/1.3,2013-02-03 20:48:00,
2013-02-03 15:54:00,25.2,32.0,28.50,North,353,0.0,0.0,21,0.00,,,-99.99,wx200d/1.3,2013-02-03 20:54:00,
2013-02-03 16:00:00,25.0,32.0,28.50,NNW,345,0.0,0.0,21,0.00,,,-99.99,wx200d/1.3,2013-02-03 21:00:00,
2013-02-03 16:06:00,25.0,32.0,28.50,North,349,0.0,0.0,21,0.00,,,-99.99,wx200d/1.3,2013-02-03 21:06:00,
2013-02-03 16:12:00,24.8,32.0,28.50,North,353,0.0,0.0,22,0.00,,,-99.99,wx200d/1.3,2013-02-03 21:12:00,
2013-02-03 16:18:00,24.8,32.0,28.50,North,353,0.0,0.0,22,0.00,,,-99.99,wx200d/1.3,2013-02-03 21:18:00,
2013-02-03 16:24:00,24.6,32.0,28.50,North,353,0.0,0.0,22,0.00,,,-99.99,wx200d/1.3,2013-02-03 21:24:00,
2013-02-03 16:30:00,24.4,32.0,28.50,North,353,0.0,0.0,22,0.00,,,-99.99,wx200d/1.3,2013-02-03 21:30:00,
2013-02-03 16:36:00,24.3,32.0,28.50,North,353,0.0,0.0,22,0.00,,,-99.99,wx200d/1.3,2013-02-03 21:36:00,
2013-02-03 16:42:00,24.3,32.0,28.50,North,353,0.0,0.0,22,0.00,,,-99.99,wx200d/1.3,2013-02-03 21:42:00,
2013-02-03 16:48:00,24.3,32.0,28.50,NNW,328,0.0,0.0,22,0.00,,,-99.99,wx200d/1.3,2013-02-03 21:48:00,
2013-02-03 16:54:00,24.1,32.0,28.50,NNW,328,0.0,0.0,22,0.00,,,-99.99,wx200d/1.3,2013-02-03 21:54:00,
2013-02-03 17:00:00,23.9,32.0,28.50,NNW,328,0.0,0.0,22,0.00,,,-99.99,wx200d/1.3,2013-02-03 22:00:00,
2013-02-03 17:06:00,23.9,32.0,28.47,NNW,328,0.0,0.0,22,0.00,,,-99.99,wx200d/1.3,2013-02-03 22:06:00,
2013-02-03 17:12:00,23.7,32.0,28.47,NNW,328,0.0,0.0,22,0.00,,,-99.99,wx200d/1.3,2013-02-03 22:12:00,
2013-02-03 17:18:00,23.5,32.0,28.47,NNW,328,0.0,0.0,22,0.00,,,-99.99,wx200d/1.3,2013-02-03 22:18:00,
2013-02-03 17:24:00,23.4,32.0,28.47,NNW,328,0.0,0.0,22,0.00,,,-99.99,wx200d/1.3,2013-02-03 22:24:00,
2013-02-03 17:30:00,22.8,32.0,28.47,NNW,328,0.0,0.0,22,0.00,,,-99.99,wx200d/1.3,2013-02-03 22:30:00,
2013-02-03 17:36:00,22.6,32.0,28.47,NNW,328,0.0,0.0,22,0.00,,,-99.99,wx200d/1.3,2013-02-03 22:36:00,
2013-02-03 17:42:00,22.6,32.0,28.47,NNW,328,0.0,0.0,22,0.00,,,-99.99,wx200d/1.3,2013-02-03 22:42:00,
2013-02-03 17:48:00,22.3,32.0,28.47,NNW,328,0.0,0.0,22,0.00,,,-99.99,wx200d/1.3,2013-02-03 22:48:00,
2013-02-03 17:54:00,21.9,32.0,28.47,NNW,328,0.0,0.0,22,0.00,,,-99.99,wx200d/1.3,2013-02-03 22:54:00,
2013-02-03 18:00:00,21.7,32.0,28.47,NNW,328,0.0,0.0,22,0.00,,,-99.99,wx200d/1.3,2013-02-03 23:00:00,
2013-02-03 18:06:00,21.7,32.0,28.47,NNW,328,0.0,0.0,22,0.00,,,-99.99,wx200d/1.3,2013-02-03 23:06:00,
2013-02-03 18:12:00,21.9,32.0,28.47,NNW,328,0.0,0.0,22,0.00,,,-99.99,wx200d/1.3,2013-02-03 23:12:00,
2013-02-03 18:18:00,21.9,32.0,28.47,NNW,328,0.0,0.0,22,0.00,,,-99.99,wx200d/1.3,2013-02-03 23:18:00,
2013-02-03 18:24:00,21.9,32.0,28.47,NNW,328,0.0,0.0,22,0.00,,,-99.99,wx200d/1.3,2013-02-03 23:24:00,
2013-02-03 18:30:00,21.9,32.0,28.47,NNW,328,0.0,0.0,22,0.00,,,-99.99,wx200d/1.3,2013-02-03 23:30:00,
2013-02-03 18:36:00,21.9,32.0,28.47,NNW,328,0.0,0.0,22,0.00,,,-99.99,wx200d/1.3,2013-02-03 23:36:00,
2013-02-03 18:42:00,22.1,32.0,28.47,NNW,328,0.0,0.0,22,0.00,,,-99.99,wx200d/1.3,2013-02-03 23:42:00,
2013-02-03 18:48:00,22.1,32.0,28.47,NNW,328,0.0,0.0,22,0.00,,,-99.99,wx200d/1.3,2013-02-03 23:48:00,
2013-02-03 18:54:00,22.1,32.0,28.47,NNW,328,0.0,0.0,22,0.00,,,-99.99,wx200d/1.3,2013-02-03 23:54:00,
2013-02-03 19:00:00,22.1,32.0,28.47,NNW,328,0.0,0.0,22,0.00,,,-99.99,wx200d/1.3,2013-02-04 00:00:00,
2013-02-03 19:06:00,22.3,32.0,28.47,NNW,328,0.0,0.0,22,0.00,,,-99.99,wx200d/1.3,2013-02-04 00:06:00,
2013-02-03 19:12:00,22.3,32.0,28.47,NNW,328,0.0,0.0,22,0.00,,,-99.99,wx200d/1.3,2013-02-04 00:12:00,
2013-02-03 19:18:00,22.3,32.0,28.50,NNW,328,0.0,0.0,22,0.00,,,-99.99,wx200d/1.3,2013-02-04 00:18:00,
2013-02-03 19:24:00,22.3,32.0,28.50,NNW,328,0.0,0.0,22,0.00,,,-99.99,wx200d/1.3,2013-02-04 00:24:00,
2013-02-03 19:30:00,22.3,32.0,28.50,NNW,328,0.0,0.0,22,0.00,,,-99.99,wx200d/1.3,2013-02-04 00:30:00,
2013-02-03 19:36:00,22.3,32.0,28.47,NNW,328,0.0,0.0,22,0.00,,,-99.99,wx200d/1.3,2013-02-04 00:36:00,
2013-02-03 19:42:00,22.3,32.0,28.47,NNW,328,0.0,0.0,22,0.00,,,-99.99,wx200d/1.3,2013-02-04 00:42:00,
2013-02-03 19:48:00,22.1,32.0,28.47,NNW,328,0.0,0.0,22,0.00,,,-99.99,wx200d/1.3,2013-02-04 00:48:00,
2013-02-03 19:54:00,22.3,32.0,28.47,NNW,328,0.0,0.0,22,0.00,,,-99.99,wx200d/1.3,2013-02-04 00:54:00,
2013-02-03 20:00:00,22.3,32.0,28.47,NNW,328,0.0,0.0,22,0.00,,,-99.99,wx200d/1.3,2013-02-04 01:00:00,
2013-02-03 20:06:00,22.3,32.0,28.47,NNW,328,0.0,0.0,22,0.00,,,-99.99,wx200d/1.3,2013-02-04 01:06:00,
2013-02-03 20:12:00,22.3,32.0,28.47,NNW,328,0.0,0.0,22,0.00,,,-99.99,wx200d/1.3,2013-02-04 01:12:00,
2013-02-03 20:18:00,22.1,32.0,28.47,NNW,328,0.0,0.0,22,0.00,,,-99.99,wx200d/1.3,2013-02-04 01:18:00,
2013-02-03 20:24:00,22.1,32.0,28.47,NNW,328,0.0,0.0,22,0.00,,,-99.99,wx200d/1.3,2013-02-04 01:24:00,
2013-02-03 20:30:00,22.1,32.0,28.47,NNW,328,0.0,0.0,22,0.00,,,-99.99,wx200d/1.3,2013-02-04 01:30:00,
2013-02-03 20:36:00,21.9,32.0,28.47,NNW,328,0.0,0.0,22,0.00,,,-99.99,wx200d/1.3,2013-02-04 01:36:00,
2013-02-03 20:42:00,21.9,32.0,28.47,NNW,328,0.0,0.0,22,0.00,,,-99.99,wx200d/1.3,2013-02-04 01:42:00,
2013-02-03 20:48:00,21.9,32.0,28.47,NNW,328,0.0,0.0,22,0.00,,,-99.99,wx200d/1.3,2013-02-04 01:48:00,
2013-02-03 20:54:00,21.9,32.0,28.47,NNW,328,0.0,0.0,22,0.00,,,-99.99,wx200d/1.3,2013-02-04 01:54:00,
2013-02-03 21:00:00,21.7,32.0,28.47,NNW,328,0.0,0.0,22,0.00,,,-99.99,wx200d/1.3,2013-02-04 02:00:00,
2013-02-03 21:06:00,21.7,32.0,28.47,NNW,328,0.0,0.0,22,0.00,,,-99.99,wx200d/1.3,2013-02-04 02:06:00,
2013-02-03 21:12:00,21.6,32.0,28.47,NNW,328,0.0,0.0,22,0.00,,,-99.99,wx200d/1.3,2013-02-04 02:12:00,
2013-02-03 21:18:00,21.6,32.0,28.47,NNW,328,0.0,0.0,22,0.00,,,-99.99,wx200d/1.3,2013-02-04 02:18:00,
2013-02-03 21:24:00,21.6,32.0,28.47,NNW,328,0.0,0.0,22,0.00,,,-99.99,wx200d/1.3,2013-02-04 02:24:00,
2013-02-03 21:30:00,21.6,32.0,28.47,NNW,328,0.0,0.0,22,0.00,,,-99.99,wx200d/1.3,2013-02-04 02:30:00,
2013-02-03 21:36:00,21.6,32.0,28.47,NNW,328,0.0,0.0,22,0.00,,,-99.99,wx200d/1.3,2013-02-04 02:36:00,
2013-02-03 21:42:00,21.6,32.0,28.47,NNW,328,0.0,0.0,22,0.00,,,-99.99,wx200d/1.3,2013-02-04 02:42:00,
2013-02-03 21:48:00,21.6,32.0,28.47,NNW,328,0.0,0.0,22,0.00,,,-99.99,wx200d/1.3,2013-02-04 02:48:00,
2013-02-03 21:54:00,21.4,32.0,28.47,NNW,328,0.0,0.0,22,0.00,,,-99.99,wx200d/1.3,2013-02-04 02:54:00,
2013-02-03 22:00:00,21.4,32.0,28.47,NNW,328,0.0,0.0,22,0.00,,,-99.99,wx200d/1.3,2013-02-04 03:00:00,
2013-02-03 22:06:00,21.4,32.0,28.47,NNW,328,0.0,0.0,22,0.00,,,-99.99,wx200d/1.3,2013-02-04 03:06:00,
2013-02-03 22:12:00,21.2,32.0,28.47,NNW,328,0.0,0.0,22,0.00,,,-99.99,wx200d/1.3,2013-02-04 03:12:00,
2013-02-03 22:18:00,21.2,32.0,28.47,NNW,328,0.0,0.0,25,0.00,,,-99.99,wx200d/1.3,2013-02-04 03:18:00,
2013-02-03 22:24:00,21.2,32.0,28.47,NNW,328,0.0,0.0,25,0.00,,,-99.99,wx200d/1.3,2013-02-04 03:24:00,
2013-02-03 22:30:00,21.2,32.0,28.47,NNW,328,0.0,0.0,25,0.00,,,-99.99,wx200d/1.3,2013-02-04 03:30:00,
2013-02-03 22:36:00,21.0,32.0,28.44,NNW,328,0.0,0.0,25,0.00,,,-99.99,wx200d/1.3,2013-02-04 03:36:00,
2013-02-03 22:42:00,20.8,32.0,28.44,NNW,328,0.0,0.0,22,0.00,,,-99.99,wx200d/1.3,2013-02-04 03:42:00,
2013-02-03 22:48:00,20.8,32.0,28.44,NNW,328,0.0,0.0,22,0.00,,,-99.99,wx200d/1.3,2013-02-04 03:48:00,
2013-02-03 22:54:00,20.7,32.0,28.44,NNW,328,0.0,0.0,22,0.00,,,-99.99,wx200d/1.3,2013-02-04 03:54:00,
2013-02-03 23:00:00,20.5,32.0,28.44,NNW,328,0.0,0.0,22,0.00,,,-99.99,wx200d/1.3,2013-02-04 04:00:00,
2013-02-03 23:06:00,20.3,32.0,28.44,NNW,329,0.0,0.0,22,0.00,,,-99.99,wx200d/1.3,2013-02-04 04:06:00,
2013-02-03 23:12:00,19.9,32.0,28.44,NNW,329,0.0,0.0,22,0.00,,,-99.99,wx200d/1.3,2013-02-04 04:12:00,
2013-02-03 23:18:00,19.8,32.0,28.44,NNW,329,0.0,0.0,22,0.00,,,-99.99,wx200d/1.3,2013-02-04 04:18:00,
2013-02-03 23:24:00,19.8,32.0,28.44,NNW,329,0.0,0.0,22,0.00,,,-99.99,wx200d/1.3,2013-02-04 04:24:00,
2013-02-03 23:30:00,19.6,32.0,28.44,NNW,329,0.0,0.0,22,0.00,,,-99.99,wx200d/1.3,2013-02-04 04:30:00,
2013-02-03 23:36:00,19.4,32.0,28.44,NNW,329,0.0,0.0,23,0.00,,,-99.99,wx200d/1.3,2013-02-04 04:36:00,
2013-02-03 23:42:00,19.0,32.0,28.44,NNW,329,0.0,0.0,23,0.00,,,-99.99,wx200d/1.3,2013-02-04 04:42:00,
2013-02-03 23:48:00,18.7,32.0,28.44,NNW,329,0.0,0.0,23,0.00,,,-99.99,wx200d/1.3,2013-02-04 04:48:00,
2013-02-03 23:54:00,18.5,32.0,28.44,NNW,332,0.0,0.0,23,0.00,,,-99.99,wx200d/1.3,2013-02-04 04:54:00,